OPS 8364 (DMSP 4)

Satellite information

Favourite Embed

Satellite Type and Status

PAYLOADIN ORBIT

Key statistics

Satellite OPS 8364 (DMSP 4) at a glance.

Uptime

18952

Days in orbit

Revolutions

≈ 14.3

Per day

Orbit

SSO

Sun Synchronous Orbit

Inclination

98.6

Latest

Satellite identification and parameters

Extended collection of information and parameters for OPS 8364 (DMSP 4).

Object identification

Identified? True

Debris? False

Object name: OPS 8364 (DMSP 4)

International designator: 1973-054A

Object number (NORAD): 6787

Object ID (CCSDS): 6787

Country: UNITED STATES OF AMERICA (US)

Current information (Y/N): Y

RCS size: LARGE

Orbital parameters

Period: 100.459 minutes

Inclination: 98.6136 deg

SMA: 7158.459 km

Apoapsis: 798.521 km

Periapsis: 762.128 km

RAAN: 52.8936 deg

Eccentricy: 0.002542

Argument of periapsis: 339.208 deg

Mean anomaly: 20.8068 deg

Mean motion: 14.33419857 rev/day

Mean motion (dot): 0.00000203 rev/day2

B* drag term: 0.000089259 1/REarth

Two-line elements (TLE)

Creation date: July 6, 2025, 6:05 p.m.

Reference frame: TEME

Reference center: EARTH

Epoch: July 6, 2025, 2:03 p.m. UTC

TLE line 0: 0 OPS 8364 (DMSP 4)

TLE line 1: 1 06787U 73054A 25187.58546860 .00000203 00000-0 89259-4 0 9994

TLE line 2: 2 06787 98.6136 52.8936 0025420 339.2080 20.8068 14.33419857702259

Live tracking on map

Real-time ground track for satellite OPS 8364 (DMSP 4).

In-orbit conjunctions

There are no conjunctions computed for OPS 8364 (DMSP 4), at the moment. Check back to stay up to date, as we update our databases every day.

Go to all conjunctions

Associated space launch

Military meteorological satellite

OPS 8364 (DMSP 4) was lifted into orbit during the mission ‘Thor Burner 2A | DMSP-5B F4’, on board a Thor Burner 2A space rocket.

The launch took place on Aug. 17, 1973, 4:49 a.m. from Space Launch Complex 10W.

For more information about the launch, click the button.

Launch to space Thor Burner 2A | DMSP-5B F4
Thor Burner 2A | DMSP-5B F4

Agency: N/A

Status: Launch Successful

Launch date: Aug. 17, 1973, 4:49 a.m. UTC

Rocket: Thor Burner 2A

Launch pad: Space Launch Complex 10W

Location: Vandenberg SFB, CA, USA

...

Latest news about this satellite

There are no fresh news available about this satellite. Check back as we update our databases every day.


Newsletter sign-up

Weekly statistics, charts and insights to help you stay on top of the space industry.